Location: Sobotiste
(48.7170°N, 17.4000°E)
Time: 08:18:15
(UTC+01:00)

N. Korean satellite - Visible Passes

Search period start: 16 December 2017 00:00
Search period end: 26 December 2017 00:00
Orbit: 461 x 513 km, 97.2° (Epoch: 15 December)

Date Brightness Start Highest point End Pass type
(mag) Time Alt. Az. Time Alt. Az. Time Alt. Az.
16 Dec 8.3 06:14:33 10° NNE 06:18:03 37° E 06:21:27 10° SSE visible
16 Dec 7.6 16:54:33 10° SE 16:57:45 27° ENE 17:00:59 10° N visible
16 Dec 8.9 18:28:01 10° SSW 18:31:13 26° W 18:34:28 10° NW visible
17 Dec 9.5 05:51:28 10° NE 05:54:20 21° E 05:57:08 10° SE visible
17 Dec 8.2 16:31:58 10° ESE 16:34:23 17° ENE 16:36:49 10° NNE visible
17 Dec 7.6 18:03:55 10° S 18:07:33 48° W 18:11:13 10° NNW visible
18 Dec 10.1 05:29:08 10° ENE 05:30:31 12° E 05:31:54 10° ESE visible
18 Dec 6.6 07:00:47 10° N 07:04:27 61° WNW 07:08:03 10° SSW visible
18 Dec 6.6 17:40:12 10° SSE 17:43:56 89° ENE 17:47:44 10° NNW visible
19 Dec 7.0 06:37:12 10° NNE 06:40:53 70° E 06:44:30 10° S visible
19 Dec 6.9 17:16:48 10° SSE 17:20:25 48° ENE 17:24:04 10° N visible
19 Dec 9.8 18:51:54 10° SW 18:54:12 16° W 18:56:31 10° NW visible
20 Dec 8.3 06:13:48 10° NNE 06:17:14 36° E 06:20:37 10° SSE visible
20 Dec 7.6 16:53:46 10° SE 16:56:58 27° ENE 17:00:11 10° N visible
20 Dec 8.9 18:27:12 10° SSW 18:30:25 27° W 18:33:41 10° NW visible
21 Dec 9.5 05:50:43 10° NE 05:53:31 20° E 05:56:15 10° SE visible
21 Dec 8.2 16:31:11 10° ESE 16:33:35 16° ENE 16:36:00 10° NNE visible
21 Dec 7.6 18:03:06 10° S 18:06:45 49° W 18:10:25 10° NNW visible
22 Dec 10.1 05:28:27 10° ENE 05:29:41 11° E 05:30:55 10° ESE visible
22 Dec 6.6 07:00:00 10° N 07:03:38 62° WNW 07:07:11 10° SSW visible
22 Dec 6.6 17:39:23 10° SSE 17:43:08 88° ENE 17:46:55 10° NNW visible
23 Dec 7.0 06:36:23 10° NNE 06:40:03 69° ESE 06:43:38 10° S visible
23 Dec 6.9 17:15:59 10° SE 17:19:36 47° ENE 17:23:14 10° N visible
23 Dec 9.7 18:51:02 10° SW 18:53:22 16° W 18:55:42 10° NW visible
24 Dec 8.4 06:13:00 10° NNE 06:16:23 35° E 06:19:42 10° SSE visible
24 Dec 7.6 16:52:57 10° SE 16:56:08 27° ENE 16:59:21 10° N visible
24 Dec 8.8 18:26:21 10° SSW 18:29:35 27° W 18:32:51 10° NW visible
25 Dec 9.5 05:49:55 10° NE 05:52:38 20° E 05:55:19 10° SE visible
25 Dec 7.6 18:02:14 10° S 18:05:54 49° W 18:09:34 10° NNW visible
